Temperature
18 18 18 17 17 17 17 17 17 17 17 17 17 17 18 18 18 18 17 18 18 18 17 17 17 17 17 17 17 17 17 17 17 17 17 17 17 17 17 17 17 17 17
17 17 17 17 17 17 17 17 17 17 17 17 17 17 17 18 18 17 17 17 18 18 17 17 17 17 17 17 17 17 17 17 17 16 16 16 17 17 17 17 17 17 17
17 17 17 17 17 17 17 17 17 17 17 17 17 17 17 17 17 17 17 17 17 17 18 17 17 17 17 17 17 17 17 17 17 17 17 16 16 17 17 17 17 17 17
17 17 17 17 17 17 17 17 17 17 17 17 17 17 17 17 17 17 17 17 17 17 17 17 17 17 17 17 17 17 17 17 17 17 17 17 16 16 17 17 17 16 16
17 16 17 17 17 17 17 17 17 17 17 17 17 17 17 17 17 17 17 17 17 17 17 17 17 17 17 18 18 18 17 17 17 17 17 17 17 17 16 17 17 17 17
16 16 16 16 17 17 17 16 16 16 16 16 17 17 17 17 17 17 17 17 17 17 17 17 16 17 17 17 18 18 18 17 17 17 17 17 17 17 17 17 17 17 17
16 16 16 16 16 16 16 16 16 16 16 16 16 17 17 17 17 17 16 17 17 17 16 16 16 17 17 17 18 18 18 18 18 18 17 17 17 17 17 17 17 17 17
17 16 16 16 16 16 16 16 16 16 16 16 16 17 18 18 17 17 17 16 16 17 17 17 16 16 16 17 17 17 18 18 18 18 18 17 17 17 17 17 17 17 17
17 17 16 16 16 16 16 16 15 15 16 16 16 16 18 19 19 18 16 16 16 16 16 17 16 16 16 16 17 17 17 17 17 17 17 17 17 17 17 17 17 17 17
16 16 16 16 16 16 16 16 15 15 15 16 16 15 16 17 17 19 17 16 16 16 16 16 16 16 16 16 16 17 17 17 17 17 17 17 17 17 17 17 17 17 17
14 15 15 16 16 16 16 16 15 15 15 15 16 16 15 15 15 16 18 17 16 16 16 16 16 16 16 16 16 16 17 17 17 17 17 17 17 17 17 17 17 17 17
14 14 14 15 15 15 15 15 15 15 15 15 15 16 16 16 16 16 17 17 17 17 16 16 16 16 16 16 16 16 17 17 17 17 17 17 17 17 17 17 17 17 17
14 13 13 14 14 14 15 15 15 15 15 15 15 15 15 16 16 16 17 17 17 16 16 16 16 15 15 15 16 16 16 17 17 17 17 17 17 17 17 17 17 17 17
13 13 13 13 13 13 14 14 14 14 14 14 14 14 15 15 15 16 16 16 17 17 16 16 15 15 15 15 16 16 16 17 17 17 17 17 17 17 16 16 16 16 16
12 12 12 12 13 13 13 13 13 13 14 14 14 14 14 14 15 15 15 16 16 18 18 15 15 14 14 15 15 16 16 16 16 17 17 17 17 16 16 16 16 16 16
11 11 11 12 12 12 12 13 12 12 13 13 13 13 13 14 14 14 15 15 15 16 17 16 15 15 14 14 15 15 16 16 16 16 16 16 16 16 16 16 16 16 16
10 10 11 11 11 11 11 12 12 12 12 12 12 12 12 13 13 13 14 14 14 15 15 16 15 14 14 14 14 15 15 15 15 16 16 16 16 16 16 16 16 16 16
9 10 10 10 11 11 11 11 11 12 12 12 11 11 12 12 12 13 13 13 14 14 14 15 14 14 13 14 14 14 13 13 14 14 15 15 16 16 16 15 15 15 15
8 9 9 10 10 11 11 11 11 11 11 11 11 11 11 11 11 12 12 13 13 13 14 14 14 14 14 13 14 13 13 12 13 13 13 14 14 15 15 15 15 15 15
7 8 8 9 9 10 10 10 11 11 11 11 11 11 11 11 11 11 11 12 12 13 13 14 14 14 14 13 13 13 12 12 12 12 12 13 13 13 14 14 14 14 14
6 7 7 8 8 9 10 10 10 10 10 10 10 10 10 10 11 10 11 11 12 12 13 13 13 14 14 13 13 12 12 12 12 12 12 12 12 12 12 12 13 13 13
5 5 6 6 7 8 10 10 10 10 10 10 10 10 10 10 10 10 10 10 11 11 12 12 13 14 14 13 13 12 12 12 11 11 11 11 11 11 11 12 12 12 12
5 5 5 5 6 7 8 9 10 10 10 10 10 10 10 10 10 9 10 10 10 10 11 11 12 13 13 13 13 12 12 12 12 12 11 11 10 11 11 11 11 12 12
4 4 4 5 5 6 7 8 9 9 9 10 10 10 10 10 9 9 9 9 10 10 10 11 11 12 13 13 13 13 12 12 12 11 11 10 10 10 11 11 11 11 11
4 4 4 4 5 5 7 8 9 9 9 9 10 10 10 10 10 9 9 9 10 10 10 10 11 12 12 12 13 12 11 11 11 10 10 10 9 9 10 10 10 10 10
4 4 4 4 4 5 6 7 8 8 9 9 9 10 10 10 10 10 10 9 10 10 10 10 11 12 12 12 12 12 12 11 11 10 9 10 9 9 8 8 8 8 8
Wind_Speed
11 10 9 10 11 11 10 10 11 11 12 12 13 13 12 13 14 14 12 13 17 19 19 18 18 18 18 19 23 25 26 26 27 27 26 25 23 22 22 21 20 19 18
10 10 10 10 10 11 11 9 11 10 11 11 14 14 14 14 14 14 16 15 19 20 19 18 18 19 19 20 21 23 25 26 27 28 28 28 27 25 24 23 22 21 20
11 10 9 10 10 10 10 9 11 9 10 12 14 14 13 14 14 14 16 16 16 19 19 17 17 18 19 20 21 22 24 26 28 28 28 28 28 28 27 26 25 24 23
9 7 9 10 8 8 7 8 9 9 9 10 11 11 11 10 13 14 15 15 14 12 16 19 17 17 18 19 20 21 22 25 27 28 28 28 28 28 28 27 27 26 25
9 7 8 8 8 7 7 9 8 8 9 9 10 10 10 9 11 13 13 13 12 11 11 15 18 16 17 18 19 20 21 22 25 26 27 28 28 28 28 28 28 27 27
8 7 8 8 7 6 7 7 7 7 8 8 9 9 8 9 9 11 12 11 11 12 12 11 12 15 19 18 18 18 19 21 23 24 25 26 27 28 28 29 29 29 28
7 7 7 6 7 7 8 8 7 9 9 7 8 8 9 11 11 10 10 10 11 11 12 11 12 11 12 20 20 19 18 20 22 24 25 25 26 27 27 28 29 29 29
7 7 7 7 7 7 8 8 8 8 8 7 7 7 8 8 9 11 10 11 11 10 11 12 11 10 11 10 15 22 19 18 19 22 24 25 26 27 27 27 29 29 29
8 7 7 8 8 9 8 9 10 11 9 8 8 8 7 6 3 6 8 8 9 8 9 8 9 9 10 10 8 18 19 18 18 19 22 24 26 27 27 27 28 29 29
8 7 7 7 8 8 9 10 11 10 10 10 8 9 9 6 5 3 6 8 9 9 9 7 9 9 9 10 9 5 15 16 16 17 18 21 25 26 27 27 27 28 28
6 6 6 6 6 7 8 10 10 11 10 11 9 8 9 8 9 7 5 6 8 9 8 8 8 7 8 9 7 5 10 11 13 14 15 16 20 24 26 26 27 27 27
6 4 5 5 5 5 7 8 10 12 12 11 10 9 8 8 8 8 8 7 7 7 6 6 7 7 6 6 3 7 2 5 9 12 13 13 15 19 22 24 25 26 26
8 5 5 5 5 5 6 7 8 10 11 12 12 10 10 10 8 7 8 7 6 5 5 6 5 4 3 2 2 4 3 1 5 9 12 13 13 15 18 21 23 25 26
11 9 8 7 7 7 6 6 7 9 9 10 12 12 10 10 9 9 8 7 7 7 7 6 5 4 3 3 3 4 3 4 1 5 9 11 12 14 16 18 20 22 23
12 12 12 11 10 9 8 7 7 7 7 8 10 11 12 11 10 10 9 9 8 7 7 7 6 5 3 3 2 2 3 7 4 1 4 7 9 10 11 14 16 18 19
15 14 14 14 13 12 11 10 8 7 7 7 6 8 10 11 10 10 10 10 9 8 6 6 6 6 3 3 5 4 6 7 8 6 5 6 7 8 8 9 10 13 14
16 16 15 15 15 15 14 12 12 10 10 8 7 6 7 8 9 10 10 11 10 9 8 6 6 5 4 4 5 5 5 6 8 10 10 11 12 12 11 11 11 11 12
17 17 17 17 17 17 17 16 15 13 12 11 10 8 7 6 8 8 9 12 11 10 10 9 7 6 6 6 7 7 5 7 8 12 14 15 16 16 15 14 14 14 14
18 18 18 18 18 18 18 18 17 16 14 13 12 12 10 8 8 6 8 11 10 11 11 9 8 6 6 7 8 8 8 7 8 11 14 16 17 17 17 16 16 17 17
18 19 19 19 19 18 18 19 19 18 16 15 14 13 13 12 10 7 5 8 10 11 11 10 8 8 7 9 9 8 6 5 5 6 10 12 16 17 16 16 16 17 19
18 18 19 19 19 18 17 18 18 19 17 16 15 15 15 15 15 11 7 4 5 7 9 10 10 9 8 10 9 8 8 7 5 4 6 7 8 9 11 13 14 16 19
18 18 18 18 18 17 15 14 16 18 17 17 15 15 14 16 18 17 14 10 6 7 7 9 10 10 10 11 10 10 9 8 4 3 4 5 5 8 8 11 14 16 19
18 18 17 17 17 17 14 13 15 17 17 16 15 12 12 14 17 16 15 14 11 11 12 11 11 11 10 11 13 14 13 11 6 8 6 6 6 9 10 14 16 18 20
16 16 16 16 16 16 14 14 15 17 17 16 14 13 13 11 15 15 14 14 12 11 11 12 13 12 10 9 14 14 13 9 10 6 4 6 6 9 11 13 16 18 20
16 15 15 15 15 15 13 13 14 14 15 16 14 14 13 12 13 13 13 12 12 11 12 15 15 11 7 7 13 12 13 13 8 4 1 6 9 10 10 10 13 16 18
14 14 14 13 13 14 11 13 15 12 13 13 12 11 11 10 13 15 12 11 11 10 10 12 13 12 10 11 17 17 16 15 10 5 4 6 11 9 7 7 9 12 14
Wind_Direction
238 236 237 240 243 243 238 238 245 244 241 238 236 233 234 235 239 243 246 222 223 228 229 227 225 229 230 226 221 222 225 224 221 217 214 214 215 215 212 208 206 205 205
246 244 243 243 245 245 248 248 247 248 247 244 241 236 234 236 237 237 244 240 227 226 226 224 221 222 225 225 222 221 224 228 227 223 218 215 213 214 216 213 209 206 207
255 251 251 247 246 246 247 249 251 248 248 246 245 242 238 239 238 234 237 238 231 216 215 218 219 218 219 221 222 221 221 224 225 223 221 218 215 213 213 214 213 209 207
268 260 254 250 247 246 241 244 246 245 244 246 248 245 238 237 240 237 235 232 236 234 208 207 214 218 220 224 226 226 222 221 222 221 220 219 217 213 211 212 214 212 209
273 262 256 251 243 236 234 242 242 246 249 246 246 241 238 233 236 237 235 236 230 232 235 191 201 214 220 223 226 227 223 219 217 218 219 220 219 216 212 212 212 213 211
264 255 252 247 240 232 232 235 242 243 256 254 257 254 242 237 232 236 234 232 229 227 233 229 213 213 213 219 223 225 223 219 215 214 217 220 223 220 215 213 212 212 212
276 258 257 245 243 241 240 238 237 237 240 244 251 253 247 241 237 237 237 243 236 233 238 235 236 237 214 209 215 220 222 219 215 212 213 216 222 224 220 216 213 213 213
312 279 258 249 240 246 242 244 240 253 246 230 246 258 254 236 222 232 234 233 240 235 229 224 228 228 243 229 208 207 217 220 218 213 212 213 217 221 221 218 216 213 214
335 320 294 269 254 248 244 239 238 241 250 241 233 247 257 254 235 200 219 224 220 222 223 217 222 223 228 239 226 197 203 213 220 220 216 214 213 216 219 218 216 214 214
340 339 322 298 272 252 247 243 235 240 246 250 232 233 253 290 276 229 198 203 207 216 227 223 229 223 227 234 226 217 191 205 216 223 223 219 215 214 216 217 216 215 215
326 335 335 323 300 278 259 249 248 238 238 245 246 229 225 226 237 262 247 203 203 212 218 227 237 236 230 236 232 195 175 203 215 221 225 224 219 216 217 217 218 216 215
297 304 315 317 309 299 284 265 254 241 239 243 250 244 231 227 223 227 240 237 228 220 219 230 232 225 227 237 192 61 109 219 225 225 226 228 225 220 218 218 219 218 216
283 277 279 280 287 285 281 275 263 257 245 238 236 242 242 241 242 230 234 237 238 233 219 217 200 196 187 207 117 20 143 168 238 230 227 226 228 226 222 220 219 218 216
278 276 260 252 254 259 264 265 263 256 253 245 240 242 246 242 237 231 230 231 230 221 205 196 164 161 146 162 88 284 138 74 323 235 224 221 223 225 225 222 218 217 215
274 264 254 249 244 240 240 246 252 253 250 245 244 242 244 245 237 231 227 228 236 229 198 179 186 155 165 124 98 94 76 64 46 69 202 201 202 208 213 214 214 213 211
278 272 262 254 248 241 231 228 236 238 241 240 242 250 247 251 245 232 225 223 229 244 232 173 179 165 146 153 120 102 92 92 69 70 102 139 152 160 165 174 182 188 189
279 273 266 261 254 246 237 228 231 222 226 233 233 238 248 260 260 246 230 223 219 225 227 202 186 169 177 178 141 118 100 88 78 73 86 97 105 111 115 122 131 141 149
280 272 268 264 259 251 241 233 231 226 220 222 224 226 233 248 259 263 251 234 222 216 222 217 197 186 184 172 142 119 104 89 85 77 84 88 92 96 100 104 110 116 121
283 276 269 263 258 254 247 237 234 230 225 224 219 219 221 216 234 244 260 251 234 218 217 218 204 185 181 156 138 120 107 97 91 89 86 86 88 90 93 96 101 105 107
287 279 271 264 258 252 247 241 234 231 229 226 221 217 215 210 213 216 241 261 251 230 213 214 205 192 185 167 158 146 132 116 99 89 85 92 93 89 89 94 98 102 104
289 284 277 267 258 251 245 239 234 230 227 227 224 221 217 210 204 203 205 237 273 253 223 211 207 201 192 175 175 164 146 130 98 110 116 120 119 112 106 102 101 103 105
291 287 280 273 263 252 240 229 232 233 229 227 226 224 221 208 203 198 198 203 232 270 261 230 215 212 201 188 174 161 153 154 137 140 124 116 119 113 109 102 104 107 109
293 288 283 275 266 260 250 227 226 235 231 225 222 220 223 209 196 199 198 200 215 241 262 269 255 236 214 191 175 172 176 172 146 151 133 112 109 102 98 99 107 112 113
291 287 284 278 271 262 245 224 216 230 232 223 215 211 216 207 195 194 192 195 204 216 233 249 257 257 249 203 182 178 163 126 115 126 133 120 117 109 105 107 108 112 114
289 285 282 279 274 266 243 218 209 225 223 219 212 207 205 201 180 183 197 200 204 212 221 237 249 265 289 203 173 160 149 144 135 138 145 133 131 116 109 114 113 111 115
287 284 280 276 273 267 241 210 205 220 214 209 208 206 204 206 169 179 204 206 211 215 216 221 228 231 226 184 167 172 168 163 149 148 183 146 147 135 118 124 135 138 126
Height
1523 1524 1525 1526 1527 1528 1528 1528 1529 1530 1531 1531 1532 1533 1533 1534 1535 1537 1538 1539 1541 1542 1544 1545 1547 1550 1551 1554 1556 1558 1560 1563 1566 1568 1571 1573 1575 1577 1579 1581 1583 1584 1587
1519 1519 1520 1520 1521 1522 1522 1523 1524 1524 1525 1526 1526 1527 1527 1528 1529 1530 1532 1533 1535 1536 1538 1540 1542 1544 1546 1549 1551 1553 1555 1558 1560 1563 1566 1568 1571 1573 1575 1578 1580 1582 1584
1514 1514 1514 1515 1516 1516 1517 1518 1518 1519 1519 1520 1520 1521 1521 1522 1523 1524 1526 1528 1530 1531 1532 1534 1536 1539 1541 1543 1546 1548 1550 1552 1555 1558 1561 1563 1566 1568 1571 1573 1576 1578 1581
1509 1509 1510 1511 1511 1511 1512 1513 1514 1514 1515 1515 1515 1515 1515 1516 1517 1519 1521 1523 1525 1527 1527 1528 1531 1533 1535 1537 1540 1542 1544 1547 1549 1552 1555 1558 1561 1563 1566 1568 1571 1574 1577
1506 1505 1506 1506 1506 1507 1508 1509 1510 1510 1511 1511 1511 1511 1511 1512 1513 1515 1516 1518 1520 1521 1523 1523 1524 1527 1529 1531 1534 1536 1539 1541 1543 1546 1549 1552 1556 1559 1561 1564 1566 1569 1572
1503 1502 1502 1502 1502 1503 1504 1505 1505 1506 1507 1508 1509 1509 1508 1509 1509 1511 1512 1514 1516 1517 1519 1520 1520 1522 1523 1525 1528 1530 1533 1535 1538 1540 1543 1547 1550 1553 1556 1559 1561 1564 1567
1500 1499 1499 1499 1499 1500 1501 1502 1502 1503 1504 1505 1506 1506 1506 1505 1506 1507 1508 1510 1511 1513 1514 1515 1517 1519 1519 1520 1522 1524 1526 1529 1532 1535 1537 1540 1544 1548 1551 1554 1556 1559 1562
1497 1497 1496 1496 1496 1497 1497 1497 1499 1501 1502 1502 1503 1503 1503 1503 1501 1502 1503 1504 1506 1508 1509 1511 1512 1513 1515 1517 1517 1518 1520 1523 1526 1529 1532 1535 1538 1541 1545 1548 1551 1554 1556
1493 1492 1492 1492 1492 1493 1494 1494 1496 1497 1499 1499 1499 1501 1500 1498 1498 1499 1499 1500 1501 1503 1505 1507 1508 1509 1510 1512 1513 1513 1514 1517 1520 1522 1525 1528 1532 1535 1538 1542 1545 1548 1551
1488 1487 1487 1487 1488 1489 1490 1490 1492 1494 1494 1496 1496 1496 1497 1497 1497 1496 1497 1497 1498 1500 1502 1503 1504 1505 1506 1507 1508 1509 1510 1512 1514 1516 1519 1522 1525 1528 1532 1535 1538 1542 1545
1485 1484 1483 1483 1483 1483 1484 1486 1487 1488 1490 1491 1493 1493 1493 1493 1495 1495 1494 1495 1496 1497 1498 1499 1500 1501 1502 1504 1505 1506 1505 1507 1509 1511 1513 1516 1519 1522 1525 1529 1532 1535 1538
1483 1481 1480 1479 1478 1478 1478 1479 1481 1482 1484 1486 1488 1489 1490 1490 1491 1492 1492 1493 1493 1494 1494 1495 1496 1497 1498 1500 1500 1500 1501 1503 1505 1507 1509 1511 1513 1516 1519 1522 1525 1528 1531
1481 1478 1476 1475 1474 1474 1473 1473 1474 1475 1477 1479 1481 1483 1485 1487 1488 1488 1489 1490 1490 1491 1491 1491 1492 1492 1493 1493 1494 1496 1497 1499 1501 1502 1504 1506 1508 1511 1513 1516 1519 1522 1525
1476 1474 1472 1471 1470 1469 1469 1468 1468 1469 1470 1472 1474 1477 1480 1482 1483 1484 1485 1487 1487 1487 1488 1488 1488 1488 1488 1489 1490 1492 1493 1495 1497 1498 1500 1501 1503 1505 1507 1510 1513 1516 1519
1469 1468 1466 1465 1465 1464 1464 1463 1463 1463 1463 1464 1467 1470 1473 1476 1478 1479 1481 1482 1484 1483 1484 1485 1486 1485 1486 1487 1487 1488 1489 1491 1492 1494 1495 1497 1498 1500 1503 1505 1508 1511 1514
1462 1461 1460 1459 1459 1458 1458 1458 1457 1457 1457 1458 1460 1462 1465 1469 1472 1474 1476 1477 1479 1480 1480 1482 1483 1484 1483 1485 1484 1485 1485 1487 1488 1490 1491 1493 1494 1497 1499 1502 1504 1507 1510
1454 1453 1452 1452 1452 1452 1452 1451 1452 1451 1452 1452 1453 1455 1457 1461 1464 1467 1470 1472 1474 1475 1477 1479 1480 1480 1480 1482 1482 1482 1483 1484 1485 1486 1487 1489 1491 1493 1496 1499 1502 1504 1507
1445 1444 1444 1443 1443 1444 1444 1444 1445 1445 1446 1447 1447 1449 1450 1452 1455 1458 1463 1467 1469 1470 1473 1475 1476 1477 1477 1479 1479 1479 1480 1481 1482 1483 1484 1486 1488 1491 1494 1496 1499 1502 1504
1435 1434 1434 1434 1434 1434 1435 1436 1437 1438 1439 1440 1441 1443 1444 1445 1447 1450 1455 1460 1464 1466 1467 1470 1472 1473 1475 1476 1476 1477 1478 1480 1481 1482 1483 1484 1486 1489 1492 1495 1497 1500 1502
1426 1424 1423 1423 1423 1424 1425 1427 1429 1430 1432 1433 1434 1436 1437 1438 1440 1443 1447 1452 1457 1461 1462 1464 1467 1469 1471 1472 1473 1474 1476 1478 1480 1481 1483 1484 1486 1489 1491 1494 1497 1499 1501
1417 1414 1413 1412 1412 1414 1415 1417 1419 1422 1424 1426 1427 1428 1429 1430 1432 1436 1439 1444 1448 1453 1457 1459 1462 1465 1467 1468 1470 1472 1474 1476 1478 1480 1482 1485 1487 1489 1492 1495 1497 1500 1502
1408 1405 1403 1402 1402 1403 1405 1407 1410 1414 1416 1418 1421 1422 1424 1424 1426 1429 1433 1437 1441 1445 1450 1454 1458 1460 1462 1464 1466 1468 1471 1474 1476 1480 1482 1485 1488 1490 1493 1495 1497 1500 1503
1399 1396 1394 1392 1392 1393 1395 1398 1401 1405 1408 1411 1414 1416 1419 1420 1421 1423 1427 1430 1435 1438 1443 1448 1452 1455 1458 1460 1461 1464 1468 1472 1474 1477 1481 1484 1487 1490 1492 1495 1498 1501 1504
1391 1388 1385 1384 1383 1383 1386 1389 1393 1396 1401 1404 1408 1411 1414 1416 1418 1420 1423 1425 1429 1433 1437 1442 1446 1450 1455 1457 1458 1461 1464 1468 1472 1476 1480 1483 1486 1489 1493 1496 1500 1503 1505
1383 1380 1378 1376 1375 1375 1377 1380 1384 1388 1393 1398 1403 1406 1409 1412 1415 1417 1420 1422 1425 1428 1431 1436 1440 1445 1449 1452 1454 1457 1460 1464 1468 1473 1477 1481 1485 1489 1493 1497 1500 1504 1507
1376 1373 1371 1369 1368 1368 1369 1373 1377 1382 1387 1393 1397 1401 1405 1409 1412 1414 1417 1419 1421 1423 1427 1431 1434 1439 1443 1447 1449 1452 1455 1459 1463 1469 1473 1478 1483 1487 1494 1498 1501 1504 1507